Location: Bailleul
(50.3375°N, 2.8513°E)
Time: 16:15:29
(UTC+00:00)

Cosmos 1607 - Pass Details

Date: 16 June 2021
Orbit: 911 x 991 km, 65.0° (Epoch: 31 July)

Event Time Altitude Azimuth Distance (km) Brightness Sun altitude
Rises 22:33:17 0° 319° (NW) 3,709 8.3 -14.4°
Reaches altitude 10° 22:35:54 10° 322° (NW) 2,752 7.5 -14.5°
Maximum altitude 22:42:22 70° 46° (NE) 1,036 4.2 -14.8°
Enters shadow 22:47:52 14° 129° (SE) 2,403 5.6 -15.0°
